WA1OUI Weather Reports


time (UTC)temp
F
wind
direction
speed
knots
gust
knots
rain 1hr
in
rain 24hr
in
rain mn
in
humidity
%
barometer
mb
20260502151907 52 354 2.6 2.6 0.00 0.10 0.10 80 1009.6
20260502151403 52 340 1.7 2.6 0.00 0.10 0.10 82 1009.6
20260502150901 52 337 1.7 2.6 0.00 0.10 0.10 84 1009.6
20260502150357 52 333 1.7 2.6 0.00 0.10 0.10 81 1009.6
20260502130745 50 355 2.6 2.6 0.00 0.10 0.10 91 1009.8
20260502130242 49 339 4.3 4.3 0.00 0.10 0.10 92 1010.1
20260502123729 49 348 0.0 1.7 0.00 0.10 0.10 97 1010.3
20260502123225 48 346 1.7 3.5 0.00 0.10 0.10 97 1010.4
20260502122722 48 330 1.7 2.6 0.00 0.10 0.10 97 1010.1
20260502122218 48 345 1.7 2.6 0.00 0.10 0.10 97 1010.0
20260502121717 48 338 1.7 1.7 0.00 0.10 0.10 97 1010.2
20260502121214 48 351 1.7 1.7 0.00 0.10 0.10 97 1010.3
20260502120710 48 339 0.9 1.7 0.00 0.10 0.10 97 1010.3
20260502120207 48 354 1.7 1.7 0.00 0.10 0.10 97 1010.4
20260502115705 48 8 0.0 1.7 0.00 0.10 0.10 97 1010.4
20260502115201 48 332 1.7 2.6 0.00 0.10 0.10 97 1010.2
20260502114657 48 339 1.7 2.6 0.00 0.10 0.10 97 1010.3
20260502114155 48 334 2.6 2.6 0.00 0.10 0.10 97 1010.1
20260502113652 47 329 0.9 1.7 0.00 0.10 0.10 97 1010.3
20260502113150 47 329 2.6 2.6 0.00 0.10 0.10 97 1010.4
20260502112647 47 342 2.6 2.6 0.00 0.10 0.10 97 1010.2
20260502112145 47 341 2.6 2.6 0.00 0.10 0.10 97 1010.0
20260502111642 47 346 1.7 1.7 0.00 0.10 0.10 97 1010.4
20260502111139 47 334 1.7 2.6 0.00 0.10 0.10 97 1010.3
20260502110637 47 354 1.7 1.7 0.00 0.10 0.10 97 1010.6
20260502110134 47 345 1.7 1.7 0.02 0.10 0.10 97 1010.4
20260502105632 47 352 1.7 2.6 0.12 0.10 0.10 97 1010.5
20260502105129 47 357 1.7 2.6 0.21 0.09 0.09 97 1010.4
20260502104626 47 2 2.6 2.6 0.14 0.08 0.08 97 1010.7
20260502104123 47 342 1.7 2.6 0.05 0.06 0.06 97 1010.5
20260502103621 47 355 1.7 1.7 0.02 0.05 0.05 97 1010.4
20260502103119 47 348 2.6 2.6 0.00 0.05 0.05 97 1010.3
20260502102615 47 328 1.7 1.7 0.00 0.05 0.05 96 1010.2
20260502102112 47 348 1.7 2.6 0.00 0.05 0.05 96 1009.9
20260502101610 47 328 1.7 1.7 0.00 0.05 0.05 96 1009.7
20260502101108 47 355 2.6 2.6 0.00 0.05 0.05 96 1009.9
20260502100606 47 346 1.7 1.7 0.02 0.05 0.05 96 1009.9
20260502100104 47 3 2.6 2.6 0.05 0.05 0.05 96 1010.0
20260502091038 47 348 1.7 2.6 0.00 0.03 0.03 95 1009.8
20260502090535 47 337 1.7 2.6 0.02 0.03 0.03 95 1009.9
20260502071429 49 341 2.6 2.6 0.00 0.00 0.00 84 1009.2
20260502070927 49 349 1.7 1.7 0.00 0.00 0.00 83 1009.5
20260502070425 49 18 0.0 1.7 0.00 0.00 0.00 83 1009.4
20260502065924 49 351 1.7 1.7 0.00 0.00 0.00 82 1009.3
20260502065422 49 332 3.5 3.5 0.02 0.00 0.00 80 1009.5
20260502064920 50 336 0.9 2.6 0.02 0.00 0.00 78 1009.4
20260502064417 50 341 1.7 2.6 0.00 0.00 0.00 78 1009.7
20260502063914 50 358 2.6 2.6 0.00 0.00 0.00 78 1009.7
20260502063412 50 24 0.0 1.7 0.00 0.00 0.00 77 1009.6
20260502062909 50 356 1.7 2.6 0.00 0.00 0.00 77 1009.4
20260502062406 50 346 3.5 4.3 0.00 0.00 0.00 77 1009.5
20260502061905 50 346 1.7 1.7 0.00 0.00 0.00 76 1009.8
20260502061403 50 336 1.7 2.6 0.00 0.00 0.00 77 1009.7
20260502060858 50 16 1.7 1.7 0.00 0.00 0.00 78 1009.6
20260502060353 50 12 1.7 1.7 0.00 0.00 0.00 77 1009.7
20260502055851 50 5 1.7 1.7 0.00 0.00 0.00 77 1009.6
20260502055349 50 4 0.9 1.7 0.00 0.00 0.00 77 1009.7
20260502054848 50 329 1.7 1.7 0.00 0.00 0.00 78 1009.8
20260502054345 50 355 1.7 1.7 0.00 0.00 0.00 77 1009.7
20260502053843 50 8 0.9 1.7 0.00 0.00 0.00 78 1009.6
20260502053340 50 359 1.7 1.7 0.00 0.00 0.00 77 1009.6
20260502052837 50 351 1.7 2.6 0.00 0.00 0.00 77 1009.5
20260502052335 50 342 2.6 3.5 0.00 0.00 0.00 76 1009.7
20260502051833 50 353 1.7 2.6 0.00 0.00 0.00 77 1009.8
20260502051331 50 339 1.7 1.7 0.00 0.00 0.00 76 1009.8
20260502050827 50 356 2.6 2.6 0.00 0.00 0.00 75 1009.9
20260502050324 50 2 2.6 2.6 0.00 0.00 0.00 76 1009.8
20260502045821 50 338 1.7 2.6 0.00 0.00 0.00 76 1010.1
20260502045317 50 331 2.6 2.6 0.00 0.00 0.00 76 1009.7
20260502044815 50 346 1.7 2.6 0.00 0.00 0.00 75 1009.9
20260502044311 50 338 2.6 2.6 0.00 0.00 0.00 74 1009.9
20260502043808 50 353 1.7 1.7 0.00 0.00 0.00 73 1010.0
20260502043306 50 356 2.6 2.6 0.00 0.00 0.00 73 1010.0
20260502042805 50 350 2.6 2.6 0.00 0.00 0.00 75 1009.8
20260502042305 50 345 1.7 1.7 0.00 0.00 0.00 75 1009.9
20260502041800 50 347 1.7 2.6 0.00 0.00 0.00 74 1009.8
20260502041257 50 352 1.7 2.6 0.00 0.00 0.00 74 1009.7
20260502040754 50 332 1.7 1.7 0.00 0.00 0.00 73 1009.6
20260502040251 50 349 1.7 2.6 0.00 0.00 0.00 74 1009.7
20260502035747 50 345 1.7 1.7 0.00 0.00 0.00 73 1009.6
20260502035244 50 352 1.7 2.6 0.00 0.00 0.00 72 1009.8
20260502034741 50 6 2.6 2.6 0.00 0.00 0.00 72 1010.0
20260502034239 50 350 1.7 2.6 0.00 0.00 0.00 72 1009.8
20260502033737 50 342 1.7 2.6 0.00 0.00 0.00 71 1009.8
20260502033235 50 341 2.6 2.6 0.00 0.00 0.00 70 1009.8
20260502032731 50 346 1.7 1.7 0.00 0.00 0.00 70 1009.7
20260502032227 50 354 1.7 2.6 0.00 0.00 0.00 70 1009.9
20260502031725 50 345 2.6 2.6 0.00 0.00 0.00 69 1010.0
20260502031223 50 358 1.7 2.6 0.00 0.00 0.00 69 1010.0
20260502030722 50 345 1.7 2.6 0.00 0.00 0.00 69 1009.9
20260502030219 50 340 1.7 1.7 0.00 0.00 0.00 69 1009.9
20260502025716 51 353 1.7 2.6 0.00 0.00 0.00 67 1010.1
20260502025214 51 339 1.7 1.7 0.00 0.00 0.00 67 1010.0
20260502024712 51 346 1.7 1.7 0.00 0.00 0.00 67 1010.1
20260502024209 51 346 1.7 1.7 0.00 0.00 0.00 67 1009.9
20260502023707 51 336 1.7 1.7 0.00 0.00 0.00 66 1009.8
20260502023204 52 331 1.7 1.7 0.00 0.00 0.00 65 1009.8
20260502022701 52 334 0.9 1.7 0.00 0.00 0.00 66 1009.8
20260502022158 52 333 0.9 1.7 0.00 0.00 0.00 66 1009.7
20260502021655 52 345 1.7 1.7 0.00 0.00 0.00 63 1009.8
20260502021153 53 324 0.9 1.7 0.00 0.00 0.00 63 1009.8
20260502020650 53 341 1.7 1.7 0.00 0.00 0.00 59 1009.9
20260502020146 53 328 1.7 2.6 0.00 0.00 0.00 61 1010.1
20260502015644 53 343 2.6 2.6 0.00 0.00 0.00 62 1009.9
20260502015140 53 338 2.6 2.6 0.00 0.00 0.00 65 1009.9
20260502014638 53 327 2.6 3.5 0.00 0.00 0.00 65 1009.8
20260502014135 53 340 2.6 2.6 0.00 0.00 0.00 64 1009.7
20260502013631 53 330 0.0 2.6 0.00 0.00 0.00 64 1009.5
20260502013126 53 353 0.9 2.6 0.00 0.00 0.00 63 1009.6
20260502012624 53 14 1.7 1.7 0.00 0.00 0.00 63 1009.4
20260502012122 53 10 0.9 1.7 0.00 0.00 0.00 64 1009.5
20260502011618 53 330 1.7 2.6 0.00 0.00 0.00 64 1009.5
20260502011114 53 359 0.9 1.7 0.00 0.00 0.00 67 1009.2
20260502010612 53 338 1.7 1.7 0.00 0.00 0.00 66 1009.3
20260502010108 53 356 1.7 1.7 0.00 0.00 0.00 63 1009.3
20260502005606 53 9 0.9 1.7 0.00 0.00 0.00 60 1009.1
20260502005104 53 6 1.7 1.7 0.00 0.00 0.00 57 1009.1
20260502004559 54 337 2.6 2.6 0.00 0.00 0.00 59 1009.1
20260502004056 54 349 1.7 2.6 0.00 0.00 0.00 57 1009.1
20260502003554 54 343 1.7 2.6 0.00 0.00 0.00 57 1008.9
20260502003051 54 331 2.6 3.5 0.00 0.00 0.00 56 1009.0
20260502002547 54 355 1.7 3.5 0.00 0.00 0.00 55 1008.8
20260502002044 55 354 2.6 3.5 0.00 0.00 0.00 53 1008.6
20260502001542 55 348 2.6 2.6 0.00 0.00 0.00 54 1008.5
20260502001039 55 342 1.7 2.6 0.00 0.00 0.00 53 1008.6
20260502000537 55 343 2.6 2.6 0.00 0.00 0.00 52 1008.7
20260502000034 56 348 2.6 2.6 0.00 0.00 0.00 52 1008.5
20260501235530 56 338 1.7 2.6 0.00 0.00 0.00 52 1008.5
20260501235026 56 345 1.7 2.6 0.00 0.00 0.00 53 1008.3
20260501234522 56 345 1.7 2.6 0.00 0.00 0.00 54 1008.3
20260501234020 56 342 1.7 1.7 0.00 0.00 0.00 51 1008.3
20260501233518 57 350 1.7 1.7 0.00 0.00 0.00 52 1008.2
20260501233014 57 340 1.7 2.6 0.00 0.00 0.00 51 1008.2
20260501232510 57 344 1.7 2.6 0.00 0.00 0.00 48 1008.0
20260501232008 57 353 1.7 2.6 0.00 0.00 0.00 49 1008.0
20260501231506 58 348 1.7 2.6 0.00 0.00 0.00 48 1007.9
20260501231004 58 340 1.7 2.6 0.00 0.00 0.00 48 1007.8
20260501230502 59 351 1.7 2.6 0.00 0.00 0.00 46 1008.0
20260501225959 59 345 1.7 1.7 0.00 0.00 0.00 44 1007.8
20260501225457 59 341 2.6 3.5 0.00 0.00 0.00 41 1007.8
20260501224952 59 346 1.7 2.6 0.00 0.00 0.00 43 1008.0
20260501224450 60 350 1.7 1.7 0.00 0.00 0.00 40 1007.8
20260501223947 60 349 1.7 2.6 0.00 0.00 0.00 40 1007.7
20260501223443 60 339 1.7 2.6 0.00 0.00 0.00 37 1007.7
20260501222939 60 348 1.7 2.6 0.00 0.00 0.00 39 1007.7
20260501222437 61 340 2.6 2.6 0.00 0.00 0.00 35 1007.7
20260501221933 61 355 1.7 4.3 0.00 0.00 0.00 34 1007.7
20260501221430 61 41 1.7 2.6 0.00 0.00 0.00 34 1007.5
20260501220928 61 8 1.7 2.6 0.00 0.00 0.00 36 1007.7
20260501220425 61 3 2.6 3.5 0.00 0.00 0.00 32 1007.7
20260501215921 62 325 0.0 1.7 0.00 0.00 0.00 34 1007.5
20260501215418 62 352 1.7 1.7 0.00 0.00 0.00 34 1007.7
20260501214914 62 108 0.0 3.5 0.00 0.00 0.00 33 1007.7
20260501214409 62 72 0.9 3.5 0.00 0.00 0.00 31 1007.8
20260501213904 62 20 0.9 2.6 0.00 0.00 0.00 31 1007.6
20260501213402 62 358 0.9 3.5 0.00 0.00 0.00 33 1007.9
20260501212857 62 318 3.5 4.3 0.00 0.00 0.00 34 1007.7
20260501212354 62 33 2.6 3.5 0.00 0.00 0.00 31 1007.8
20260501211851 62 359 0.0 3.5 0.00 0.00 0.00 34 1007.9
20260501211348 63 334 3.5 3.5 0.00 0.00 0.00 33 1007.7
20260501210846 63 7 3.5 3.5 0.00 0.00 0.00 31 1007.8
20260501210343 63 1 1.7 2.6 0.00 0.00 0.00 31 1007.9
20260501205839 63 346 2.6 2.6 0.00 0.00 0.00 29 1007.7
20260501205336 64 9 3.5 5.2 0.00 0.00 0.00 32 1007.7
20260501204832 64 349 2.6 3.5 0.00 0.00 0.00 32 1007.7
20260501204329 64 333 1.7 3.5 0.00 0.00 0.00 32 1007.5
20260501203825 65 12 2.6 3.5 0.00 0.00 0.00 29 1007.6
20260501203323 65 347 0.0 2.6 0.00 0.00 0.00 31 1007.7
20260501202820 65 351 4.3 4.3 0.00 0.00 0.00 29 1007.9
20260501202317 64 51 0.9 4.3 0.00 0.00 0.00 31 1007.8
20260501201814 64 342 3.5 3.5 0.00 0.00 0.00 30 1007.7
20260501201310 64 110 1.7 3.5 0.00 0.00 0.00 30 1007.6
20260501200807 63 53 1.7 2.6 0.00 0.00 0.00 32 1007.7
20260501200304 64 137 1.7 3.5 0.00 0.00 0.00 30 1007.8
20260501195802 66 175 0.0 5.2 0.00 0.00 0.00 31 1007.8
20260501195257 65 228 1.7 2.6 0.00 0.00 0.00 32 1007.9
20260501194754 65 333 1.7 4.3 0.00 0.00 0.00 29 1008.0
20260501194249 65 336 3.5 3.5 0.00 0.00 0.00 30 1007.9
20260501193746 64 351 3.5 4.3 0.00 0.00 0.00 31 1007.6
20260501193245 64 8 4.3 6.1 0.00 0.00 0.00 31 1007.9
20260501192742 65 353 1.7 3.5 0.00 0.00 0.00 28 1007.9
20260501192238 64 20 2.6 4.3 0.00 0.00 0.00 29 1007.9
20260501191736 65 114 4.3 5.2 0.00 0.00 0.00 28 1008.0
20260501191233 65 348 4.3 4.3 0.00 0.00 0.00 30 1008.1
20260501190729 65 26 1.7 3.5 0.00 0.00 0.00 29 1008.0
20260501190225 65 343 2.6 5.2 0.00 0.00 0.00 32 1008.2
20260501185721 64 28 1.7 7.8 0.00 0.00 0.00 29 1008.4
20260501185217 64 26 2.6 3.5 0.00 0.00 0.00 30 1008.5
20260501184713 65 28 3.5 5.2 0.00 0.00 0.00 29 1008.5
20260501184209 64 4 2.6 4.3 0.00 0.00 0.00 34 1008.4
20260501183705 64 107 2.6 2.6 0.00 0.00 0.00 31 1008.4
20260501183202 64 20 1.7 5.2 0.00 0.00 0.00 31 1008.5
20260501182658 63 38 3.5 4.3 0.00 0.00 0.00 32 1008.5
20260501182155 63 130 1.7 2.6 0.00 0.00 0.00 32 1008.6
20260501181652 62 353 1.7 4.3 0.00 0.00 0.00 34 1008.8
20260501181149 62 6 1.7 3.5 0.00 0.00 0.00 33 1008.7
20260501180647 63 351 1.7 1.7 0.00 0.00 0.00 35 1008.7
20260501180143 63 6 2.6 3.5 0.00 0.00 0.00 32 1008.8
20260501175640 63 27 5.2 5.2 0.00 0.00 0.00 30 1008.7
20260501175137 63 30 3.5 4.3 0.00 0.00 0.00 33 1008.8
20260501174634 63 296 3.5 4.3 0.00 0.00 0.00 30 1008.8
20260501174131 62 358 2.6 4.3 0.00 0.00 0.00 36 1008.8
20260501173629 62 344 4.3 4.3 0.00 0.00 0.00 33 1008.9
20260501173125 62 136 1.7 3.5 0.00 0.00 0.00 32 1008.8
20260501172621 61 78 2.6 6.1 0.00 0.00 0.00 31 1008.7
20260501172116 61 347 0.9 2.6 0.00 0.00 0.00 33 1008.9
20260501171613 61 3 3.5 5.2 0.00 0.00 0.00 35 1009.0
20260501171110 62 350 2.6 4.3 0.00 0.00 0.00 31 1008.9
20260501170607 62 306 2.6 3.5 0.00 0.00 0.00 32 1008.9
20260501170103 62 0 2.6 4.3 0.00 0.00 0.00 29 1008.9
20260501165601 62 334 2.6 4.3 0.00 0.00 0.00 32 1009.1
20260501165058 62 36 1.7 5.2 0.00 0.00 0.00 35 1009.1
20260501164556 61 48 3.5 4.3 0.00 0.00 0.00 35 1009.0
20260501164052 61 307 0.9 5.2 0.00 0.00 0.00 32 1009.1
20260501163549 61 339 3.5 5.2 0.00 0.00 0.00 33 1009.1
20260501163046 61 341 6.1 6.1 0.00 0.00 0.00 36 1009.0
20260501162542 60 335 3.5 4.3 0.00 0.00 0.00 37 1009.2
20260501162039 60 11 1.7 4.3 0.00 0.00 0.00 36 1009.2
20260501161537 60 86 1.7 3.5 0.00 0.00 0.00 37 1009.1
20260501161033 60 3 5.2 7.0 0.00 0.00 0.00 33 1009.2
20260501160530 59 349 2.6 5.2 0.00 0.00 0.00 41 1009.2
20260501160027 58 342 3.5 4.3 0.00 0.00 0.00 39 1009.5
20260501155523 57 12 2.6 3.5 0.00 0.00 0.00 38 1009.5
20260501155021 57 16 1.7 6.1 0.00 0.00 0.00 38 1009.5
20260501154518 58 59 3.5 5.2 0.00 0.00 0.00 40 1009.5
20260501154015 58 326 2.6 4.3 0.00 0.00 0.00 40 1009.5
20260501153513 57 339 3.5 5.2 0.00 0.00 0.00 39 1009.7